When you browse on this site, cookies collect data to enhance your experience and personalize the content and advertising you see.
Visit our Privacy Policy to learn more. By continuing to use the site, you agree to this use of cookies and data.

Hourly Weather Kazakovka

Today, 11 July, Saturday

Time Temperature Precipitation Wind Pressure Humidity
00:00 +15°C° 0 mm 1 mps 750 mmHg 78%
01:00 +15°C° 0 mm 1 mps 750 mmHg 79%
02:00 +15°C° 0 mm 1 mps 750 mmHg 80%
03:00 +14°C° 0 mm 1 mps 750 mmHg 81%
04:00 +15°C° 0 mm 2 mps 750 mmHg 82%
05:00 +15°C° 0 mm 2 mps 750 mmHg 83%
06:00 +15°C° 0 mm 2 mps 751 mmHg 84%
07:00 +17°C° 0 mm 2 mps 751 mmHg 80%
08:00 +19°C° 0 mm 3 mps 751 mmHg 76%
09:00 +20°C° 0 mm 3 mps 751 mmHg 73%
10:00 +21°C° 0 mm 3 mps 751 mmHg 70%
11:00 +22°C° 0 mm 4 mps 750 mmHg 68%
12:00 +23°C° 0 mm 4 mps 750 mmHg 65%
13:00 +23°C° 0 mm 4 mps 750 mmHg 65%
14:00 +25°C° 0 mm 4 mps 750 mmHg 65%
15:00 +25°C° 0 mm 4 mps 750 mmHg 65%
16:00 +25°C° 0 mm 3 mps 750 mmHg 68%
17:00 +25°C° 0 mm 3 mps 749 mmHg 70%
18:00 +25°C° 0 mm 3 mps 749 mmHg 73%
19:00 +23°C° 0 mm 2 mps 749 mmHg 76%
20:00 +21°C° 0 mm 2 mps 749 mmHg 80%
21:00 +19°C° 0 mm 2 mps 749 mmHg 83%
22:00 +19°C° 0 mm 2 mps 749 mmHg 84%
23:00 +18°C° 0 mm 2 mps 749 mmHg 84%

Tomorrow, 12 July, Sunday

Time Temperature Precipitation Wind Pressure Humidity
00:00 +18°C° 0 mm 2 mps 749 mmHg 85%
01:00 +17°C° 0 mm 2 mps 748 mmHg 85%
02:00 +17°C° 0 mm 2 mps 748 mmHg 85%
03:00 +17°C° 0 mm 2 mps 748 mmHg 86%
04:00 +17°C° 0 mm 2 mps 748 mmHg 85%
05:00 +17°C° 0 mm 2 mps 748 mmHg 85%
06:00 +18°C° 0 mm 2 mps 748 mmHg 85%
07:00 +19°C° 0 mm 2 mps 748 mmHg 80%
08:00 +21°C° 0 mm 2 mps 748 mmHg 75%
09:00 +23°C° 0 mm 2 mps 748 mmHg 70%
10:00 +24°C° 0 mm 2 mps 747 mmHg 67%
11:00 +25°C° 0 mm 2 mps 747 mmHg 64%
12:00 +26°C° 0 mm 2 mps 747 mmHg 61%
13:00 +26°C° 0 mm 2 mps 747 mmHg 60%
14:00 +27°C° 0 mm 2 mps 746 mmHg 60%
15:00 +27°C° 0 mm 3 mps 746 mmHg 59%
16:00 +27°C° 0 mm 2 mps 746 mmHg 61%
17:00 +27°C° 0 mm 2 mps 745 mmHg 63%
18:00 +26°C° 0 mm 1 mps 745 mmHg 65%
19:00 +25°C° 0 mm 1 mps 745 mmHg 69%
20:00 +23°C° 0 mm 2 mps 744 mmHg 72%
21:00 +20°C° 0 mm 2 mps 744 mmHg 76%
22:00 +20°C° 0 mm 2 mps 744 mmHg 77%
23:00 +20°C° 0 mm 1 mps 744 mmHg 78%

Day after tomorrow, 13 July, Monday

Time Temperature Precipitation Wind Pressure Humidity
00:00 +19°C° 0 mm 1 mps 743 mmHg 79%
01:00 +18°C° 0 mm 2 mps 743 mmHg 81%
02:00 +17°C° 0 mm 2 mps 743 mmHg 83%
03:00 +17°C° 0 mm 2 mps 742 mmHg 84%
04:00 +17°C° 0 mm 2 mps 742 mmHg 85%
05:00 +18°C° 0 mm 2 mps 741 mmHg 86%
06:00 +18°C° 0 mm 2 mps 741 mmHg 87%
07:00 +20°C° 0 mm 2 mps 741 mmHg 83%
08:00 +21°C° 0 mm 2 mps 741 mmHg 79%
09:00 +23°C° 0 mm 1 mps 740 mmHg 74%
10:00 +24°C° 0 mm 2 mps 740 mmHg 73%
11:00 +25°C° 0 mm 2 mps 740 mmHg 71%
12:00 +26°C° 0 mm 3 mps 740 mmHg 70%
13:00 +26°C° 0 mm 3 mps 739 mmHg 72%
14:00 +26°C° 0 mm 2 mps 739 mmHg 75%
15:00 +26°C° 0 mm 2 mps 739 mmHg 77%
16:00 +25°C° 2.8 mm 2 mps 739 mmHg 82%
17:00 +23°C° 2.8 mm 2 mps 738 mmHg 88%
18:00 +21°C° 2.8 mm 2 mps 738 mmHg 93%
19:00 +21°C° 0.7 mm 2 mps 738 mmHg 92%
20:00 +20°C° 0.7 mm 2 mps 738 mmHg 91%
21:00 +21°C° 0.7 mm 1 mps 738 mmHg 90%
22:00 +20°C° 0.2 mm 2 mps 738 mmHg 92%
23:00 +19°C° 0.2 mm 2 mps 738 mmHg 93%

14 July, Tuesday

Time Temperature Precipitation Wind Pressure Humidity
00:00 +19°C° 0.2 mm 3 mps 738 mmHg 95%
01:00 +19°C° 0.8 mm 2 mps 738 mmHg 95%
02:00 +19°C° 0.8 mm 2 mps 738 mmHg 96%
03:00 +20°C° 0.8 mm 1 mps 738 mmHg 97%
04:00 +19°C° 1 mm 2 mps 738 mmHg 97%
05:00 +19°C° 1 mm 2 mps 738 mmHg 97%
06:00 +18°C° 1 mm 3 mps 738 mmHg 98%
07:00 +18°C° 0.4 mm 3 mps 738 mmHg 97%
08:00 +18°C° 0.4 mm 3 mps 738 mmHg 97%
09:00 +18°C° 0.4 mm 4 mps 738 mmHg 96%
10:00 +18°C° 0.7 mm 4 mps 738 mmHg 96%
11:00 +17°C° 0.7 mm 5 mps 738 mmHg 96%
12:00 +16°C° 0.7 mm 6 mps 738 mmHg 96%
13:00 +16°C° 0.3 mm 6 mps 738 mmHg 95%
14:00 +16°C° 0.3 mm 7 mps 738 mmHg 94%
15:00 +16°C° 0.3 mm 7 mps 738 mmHg 93%
16:00 +16°C° 0.1 mm 7 mps 738 mmHg 93%
17:00 +16°C° 0.1 mm 7 mps 738 mmHg 93%
18:00 +16°C° 0.1 mm 7 mps 738 mmHg 93%
19:00 +16°C° 0.2 mm 7 mps 738 mmHg 92%
20:00 +16°C° 0.2 mm 7 mps 738 mmHg 92%
21:00 +15°C° 0.2 mm 6 mps 738 mmHg 91%
22:00 +15°C° 0.3 mm 6 mps 738 mmHg 92%
23:00 +15°C° 0.3 mm 6 mps 737 mmHg 92%

15 July, Wednesday

Time Temperature Precipitation Wind Pressure Humidity
00:00 +15°C° 0.3 mm 6 mps 737 mmHg 92%
01:00 +15°C° 1.8 mm 7 mps 737 mmHg 93%
02:00 +14°C° 1.8 mm 7 mps 737 mmHg 94%
03:00 +13°C° 1.8 mm 8 mps 737 mmHg 95%
04:00 +13°C° 5.6 mm 8 mps 737 mmHg 95%
05:00 +13°C° 5.6 mm 9 mps 737 mmHg 95%
06:00 +13°C° 5.6 mm 9 mps 737 mmHg 95%
07:00 +12°C° 3.4 mm 9 mps 737 mmHg 95%
08:00 +12°C° 3.4 mm 9 mps 737 mmHg 94%
09:00 +12°C° 3.4 mm 9 mps 737 mmHg 94%
10:00 +12°C° 0.8 mm 9 mps 738 mmHg 94%
11:00 +12°C° 0.8 mm 9 mps 738 mmHg 94%
12:00 +11°C° 0.8 mm 9 mps 738 mmHg 93%
13:00 +11°C° 1.1 mm 9 mps 739 mmHg 93%
14:00 +11°C° 1.1 mm 9 mps 739 mmHg 93%
15:00 +10°C° 1.1 mm 9 mps 739 mmHg 93%
16:00 +10°C° 0.5 mm 9 mps 740 mmHg 92%
17:00 +10°C° 0.5 mm 8 mps 740 mmHg 91%
18:00 +10°C° 0.5 mm 7 mps 740 mmHg 90%
19:00 +10°C° 0.1 mm 7 mps 741 mmHg 90%
20:00 +10°C° 0.1 mm 6 mps 741 mmHg 90%
21:00 +10°C° 0.1 mm 6 mps 741 mmHg 90%
22:00 +10°C° 0 mm 5 mps 742 mmHg 89%
23:00 +10°C° 0 mm 5 mps 742 mmHg 88%

16 July, Thursday

Time Temperature Precipitation Wind Pressure Humidity
00:00 +11°C° 0 mm 4 mps 742 mmHg 87%
01:00 +11°C° 0 mm 4 mps 742 mmHg 86%
02:00 +10°C° 0 mm 5 mps 742 mmHg 86%
03:00 +10°C° 0 mm 5 mps 742 mmHg 85%
04:00 +10°C° 0 mm 5 mps 742 mmHg 86%
05:00 +10°C° 0 mm 5 mps 742 mmHg 88%
06:00 +11°C° 0 mm 4 mps 742 mmHg 89%
07:00 +13°C° 0 mm 4 mps 742 mmHg 87%
08:00 +14°C° 0 mm 4 mps 742 mmHg 86%
09:00 +17°C° 0 mm 4 mps 742 mmHg 84%
10:00 +17°C° 0.2 mm 4 mps 742 mmHg 82%
11:00 +18°C° 0.2 mm 4 mps 742 mmHg 79%
12:00 +19°C° 0.2 mm 4 mps 742 mmHg 76%
13:00 +20°C° 0.5 mm 4 mps 742 mmHg 76%
14:00 +20°C° 0.5 mm 4 mps 742 mmHg 75%
15:00 +20°C° 0.5 mm 4 mps 742 mmHg 74%
16:00 +20°C° 0.2 mm 4 mps 741 mmHg 76%
17:00 +20°C° 0.2 mm 3 mps 741 mmHg 77%
18:00 +20°C° 0.2 mm 3 mps 741 mmHg 78%
19:00 +19°C° 0.1 mm 3 mps 741 mmHg 81%
20:00 +18°C° 0.1 mm 3 mps 741 mmHg 84%
21:00 +16°C° 0.1 mm 3 mps 741 mmHg 86%
22:00 +16°C° 0 mm 3 mps 741 mmHg 87%
23:00 +14°C° 0 mm 3 mps 741 mmHg 88%
Show more